Location: Sungai Buloh
(3.1000°N, 113.0000°E)
Time: 21:09:34
(UTC+00:00)

ARIANE 5 DEB (SYLDA) - Pass Details

Date: 12 January 2026
Orbit: 878 x 35939 km, 1.9° (Epoch: 11 February)

Event Time Altitude Azimuth Distance (km) Brightness Sun altitude
Enters shadow 19:16:05 - 269° (W) 11,477 8.1 -47.1°
Exits shadow 19:44:47 34° 115° (ESE) 1,603 4.4 -40.7°
Drops below altitude 10° 19:47:12 10° 103° (ESE) 2,549 5.8 -40.2°
Sets 19:49:08 0° 99° (E) 3,459 6.7 -39.7°
